Time,TemperatureF,DewpointF,PressureIn,WindDirection,WindDirectionDegrees,WindSpeedMPH,WindSpeedGustMPH,Humidity,HourlyPrecipIn,Conditions,Clouds,dailyrainin,SoftwareType,DateUTC
2013-08-22 00:01:00,73.4,62.2,30.14,SE,135,0.0,0.0,68,0.00,,,0.00,pywws,2013-08-22 04:01:00,
2013-08-22 00:02:00,73.2,62.0,30.14,SE,135,0.0,0.0,68,0.00,,,0.00,pywws,2013-08-22 04:02:00,
2013-08-22 00:04:00,73.2,62.0,30.15,NE,45,0.0,0.0,68,0.00,,,0.00,pywws,2013-08-22 04:04:00,
2013-08-22 00:05:00,73.2,62.0,30.15,North,0,0.0,0.0,68,0.00,,,0.00,pywws,2013-08-22 04:05:00,
2013-08-22 00:09:00,73.2,62.4,30.14,North,0,0.0,0.7,69,0.00,,,0.00,pywws,2013-08-22 04:09:00,
2013-08-22 00:14:00,73.2,62.4,30.14,NNW,338,0.7,1.6,69,0.00,,,0.00,pywws,2013-08-22 04:14:00,
2013-08-22 00:20:00,73.2,62.8,30.14,North,0,0.0,0.0,70,0.00,,,0.00,pywws,2013-08-22 04:20:00,
2013-08-22 00:25:00,73.2,62.8,30.14,NW,315,0.0,0.0,70,0.00,,,0.00,pywws,2013-08-22 04:25:00,
2013-08-22 00:32:00,73.2,63.2,30.14,NW,315,0.0,0.0,71,0.00,,,0.00,pywws,2013-08-22 04:32:00,
2013-08-22 00:37:00,73.0,63.1,30.14,NW,315,0.0,0.0,71,0.00,,,0.00,pywws,2013-08-22 04:37:00,
2013-08-22 00:43:00,73.0,63.1,30.14,NW,315,0.0,0.0,71,0.00,,,0.00,pywws,2013-08-22 04:43:00,
2013-08-22 00:49:00,72.9,62.9,30.15,NW,315,0.0,0.0,71,0.00,,,0.00,pywws,2013-08-22 04:49:00,
2013-08-22 00:55:00,72.9,62.9,30.14,NW,315,0.7,1.6,71,0.00,,,0.00,pywws,2013-08-22 04:55:00,
2013-08-22 01:01:00,72.7,62.7,30.14,NW,315,0.0,0.0,71,0.00,,,0.00,pywws,2013-08-22 05:01:00,
2013-08-22 01:07:00,72.5,62.5,30.15,West,270,0.0,0.0,71,0.00,,,0.00,pywws,2013-08-22 05:07:00,
2013-08-22 01:13:00,72.3,62.4,30.14,West,270,0.0,0.0,71,0.00,,,0.00,pywws,2013-08-22 05:13:00,
2013-08-22 01:19:00,72.3,62.4,30.15,West,270,0.0,0.0,71,0.00,,,0.00,pywws,2013-08-22 05:19:00,
2013-08-22 01:25:00,72.1,62.2,30.15,West,270,0.0,0.0,71,0.00,,,0.00,pywws,2013-08-22 05:25:00,
2013-08-22 01:30:00,72.1,62.2,30.15,East,90,0.0,0.7,71,0.00,,,0.00,pywws,2013-08-22 05:30:00,
2013-08-22 01:36:00,72.0,62.0,30.15,North,0,0.0,0.0,71,0.00,,,0.00,pywws,2013-08-22 05:36:00,
2013-08-22 01:41:00,72.0,62.0,30.16,North,0,0.0,0.0,71,0.00,,,0.00,pywws,2013-08-22 05:41:00,
2013-08-22 01:47:00,72.0,62.0,30.16,North,0,0.0,0.0,71,0.00,,,0.00,pywws,2013-08-22 05:47:00,
2013-08-22 01:56:00,71.8,61.9,30.16,North,0,0.0,0.0,71,0.00,,,0.00,pywws,2013-08-22 05:56:00,
2013-08-22 02:03:00,71.6,62.1,30.16,North,0,0.0,0.0,72,0.00,,,0.00,pywws,2013-08-22 06:03:00,
2013-08-22 02:09:00,71.4,62.3,30.16,East,90,0.0,0.0,73,0.00,,,0.00,pywws,2013-08-22 06:09:00,
2013-08-22 02:14:00,71.2,62.1,30.15,East,90,0.0,0.0,73,0.00,,,0.00,pywws,2013-08-22 06:14:00,
2013-08-22 02:20:00,71.2,62.5,30.15,SE,135,0.0,0.0,74,0.00,,,0.00,pywws,2013-08-22 06:20:00,
2013-08-22 02:25:00,71.1,62.3,30.16,SE,135,0.0,0.0,74,0.00,,,0.00,pywws,2013-08-22 06:25:00,
2013-08-22 02:31:00,70.9,62.2,30.15,SE,135,0.0,0.0,74,0.00,,,0.00,pywws,2013-08-22 06:31:00,
2013-08-22 02:37:00,70.9,62.2,30.15,East,90,0.0,0.7,74,0.00,,,0.00,pywws,2013-08-22 06:37:00,
2013-08-22 02:43:00,70.9,62.5,30.15,SE,135,0.0,0.0,75,0.00,,,0.00,pywws,2013-08-22 06:43:00,
2013-08-22 02:49:00,70.7,62.4,30.15,East,90,0.0,0.0,75,0.00,,,0.00,pywws,2013-08-22 06:49:00,
2013-08-22 02:54:00,70.7,62.8,30.15,East,90,0.0,0.0,76,0.00,,,0.00,pywws,2013-08-22 06:54:00,
2013-08-22 03:00:00,70.5,62.6,30.15,East,90,0.0,0.7,76,0.00,,,0.00,pywws,2013-08-22 07:00:00,
2013-08-22 03:05:00,70.5,62.6,30.14,East,90,0.0,0.0,76,0.00,,,0.00,pywws,2013-08-22 07:05:00,
2013-08-22 03:11:00,70.3,62.4,30.14,East,90,0.0,0.0,76,0.00,,,0.00,pywws,2013-08-22 07:11:00,
2013-08-22 03:17:00,70.3,62.4,30.14,East,90,0.0,0.0,76,0.00,,,0.00,pywws,2013-08-22 07:17:00,
2013-08-22 03:23:00,70.3,62.8,30.14,SE,135,0.7,0.7,77,0.00,,,0.00,pywws,2013-08-22 07:23:00,
2013-08-22 03:29:00,70.3,62.8,30.14,East,90,0.0,0.7,77,0.00,,,0.00,pywws,2013-08-22 07:29:00,
2013-08-22 03:34:00,70.3,62.8,30.14,South,180,0.0,0.0,77,0.00,,,0.00,pywws,2013-08-22 07:34:00,
2013-08-22 03:40:00,70.3,63.1,30.14,NE,45,0.0,0.7,78,0.00,,,0.00,pywws,2013-08-22 07:40:00,
2013-08-22 03:45:00,70.5,63.3,30.14,SW,225,0.0,0.0,78,0.00,,,0.00,pywws,2013-08-22 07:45:00,
2013-08-22 03:51:00,70.5,63.7,30.14,SW,225,0.0,0.0,79,0.00,,,0.00,pywws,2013-08-22 07:51:00,
2013-08-22 03:57:00,70.7,63.9,30.14,SW,225,0.0,0.0,79,0.00,,,0.00,pywws,2013-08-22 07:57:00,
2013-08-22 04:02:00,70.9,64.0,30.14,NE,45,0.0,0.0,79,0.00,,,0.00,pywws,2013-08-22 08:02:00,
2013-08-22 04:08:00,70.9,64.4,30.13,NE,45,0.0,0.0,80,0.00,,,0.00,pywws,2013-08-22 08:08:00,
2013-08-22 04:13:00,71.1,64.6,30.14,NE,45,0.0,0.0,80,0.00,,,0.00,pywws,2013-08-22 08:13:00,
2013-08-22 04:19:00,71.1,64.6,30.13,East,90,0.0,0.7,80,0.00,,,0.00,pywws,2013-08-22 08:19:00,
2013-08-22 04:25:00,71.1,64.6,30.13,East,90,0.0,0.7,80,0.00,,,0.00,pywws,2013-08-22 08:25:00,
2013-08-22 04:30:00,71.1,64.6,30.13,West,270,0.0,0.0,80,0.00,,,0.00,pywws,2013-08-22 08:30:00,
2013-08-22 04:36:00,71.1,64.6,30.12,West,270,0.0,0.0,80,0.00,,,0.00,pywws,2013-08-22 08:36:00,
2013-08-22 04:41:00,71.4,64.9,30.12,NE,45,0.0,0.0,80,0.00,,,0.00,pywws,2013-08-22 08:41:00,
2013-08-22 04:48:00,71.4,65.3,30.12,North,0,0.0,0.0,81,0.00,,,0.00,pywws,2013-08-22 08:48:00,
2013-08-22 04:53:00,71.4,65.3,30.12,North,0,0.0,0.0,81,0.00,,,0.00,pywws,2013-08-22 08:53:00,
2013-08-22 04:59:00,71.6,65.1,30.12,East,90,0.0,0.0,80,0.00,,,0.00,pywws,2013-08-22 08:59:00,
2013-08-22 05:05:00,71.4,65.3,30.11,East,90,0.0,0.0,81,0.00,,,0.00,pywws,2013-08-22 09:05:00,
2013-08-22 05:10:00,71.4,64.9,30.11,East,90,0.0,0.0,80,0.00,,,0.00,pywws,2013-08-22 09:10:00,
2013-08-22 05:16:00,71.4,64.9,30.11,SE,135,0.0,0.7,80,0.00,,,0.00,pywws,2013-08-22 09:16:00,
2013-08-22 05:21:00,71.1,64.2,30.11,East,90,0.0,0.7,79,0.00,,,0.00,pywws,2013-08-22 09:21:00,
2013-08-22 05:27:00,71.1,64.2,30.11,East,90,0.0,0.0,79,0.00,,,0.00,pywws,2013-08-22 09:27:00,
2013-08-22 05:33:00,71.1,64.2,30.11,East,90,0.0,0.0,79,0.00,,,0.00,pywws,2013-08-22 09:33:00,
2013-08-22 05:39:00,71.1,64.6,30.11,NE,45,0.0,0.7,80,0.00,,,0.00,pywws,2013-08-22 09:39:00,
2013-08-22 05:45:00,71.1,64.6,30.11,North,0,2.2,3.1,80,0.00,,,0.00,pywws,2013-08-22 09:45:00,
2013-08-22 05:50:00,71.1,64.2,30.11,North,0,0.0,0.0,79,0.00,,,0.00,pywws,2013-08-22 09:50:00,
2013-08-22 05:56:00,71.1,64.2,30.11,North,0,0.0,0.0,79,0.00,,,0.00,pywws,2013-08-22 09:56:00,
2013-08-22 06:01:00,70.9,64.0,30.11,North,0,0.0,0.0,79,0.00,,,0.00,pywws,2013-08-22 10:01:00,
2013-08-22 06:07:00,70.9,64.0,30.11,North,0,0.0,0.0,79,0.00,,,0.00,pywws,2013-08-22 10:07:00,
2013-08-22 06:13:00,70.7,64.2,30.11,East,90,0.7,1.6,80,0.00,,,0.00,pywws,2013-08-22 10:13:00,
2013-08-22 06:18:00,70.7,64.2,30.11,SE,135,0.0,1.6,80,0.00,,,0.00,pywws,2013-08-22 10:18:00,
2013-08-22 06:24:00,70.5,64.0,30.11,SE,135,0.7,1.6,80,0.00,,,0.00,pywws,2013-08-22 10:24:00,
2013-08-22 06:29:00,70.5,64.4,30.11,East,90,0.0,0.0,81,0.00,,,0.00,pywws,2013-08-22 10:29:00,
2013-08-22 06:35:00,70.5,64.4,30.11,East,90,0.0,0.0,81,0.00,,,0.00,pywws,2013-08-22 10:35:00,
2013-08-22 06:41:00,70.5,64.4,30.11,East,90,0.0,0.0,81,0.00,,,0.00,pywws,2013-08-22 10:41:00,
2013-08-22 06:46:00,70.3,64.6,30.11,SE,135,0.0,0.0,82,0.00,,,0.00,pywws,2013-08-22 10:46:00,
2013-08-22 06:52:00,70.3,64.6,30.11,SE,135,0.0,0.7,82,0.00,,,0.00,pywws,2013-08-22 10:52:00,
2013-08-22 06:57:00,70.5,64.8,30.11,SE,135,0.0,0.0,82,0.00,,,0.00,pywws,2013-08-22 10:57:00,
2013-08-22 07:02:00,70.5,64.8,30.11,NE,45,0.0,0.7,82,0.00,,,0.00,pywws,2013-08-22 11:02:00,
2013-08-22 07:07:00,70.7,64.9,30.11,SE,135,0.0,0.0,82,0.00,,,0.00,pywws,2013-08-22 11:07:00,
2013-08-22 07:12:00,70.7,64.9,30.11,NW,315,0.0,0.0,82,0.00,,,0.00,pywws,2013-08-22 11:12:00,
2013-08-22 07:17:00,71.1,65.3,30.10,East,90,0.0,0.0,82,0.00,,,0.00,pywws,2013-08-22 11:17:00,
2013-08-22 07:22:00,71.2,65.5,30.11,NW,315,0.0,0.0,82,0.00,,,0.00,pywws,2013-08-22 11:22:00,
2013-08-22 07:27:00,71.6,65.5,30.10,NW,315,0.0,0.0,81,0.00,,,0.00,pywws,2013-08-22 11:27:00,
2013-08-22 07:32:00,72.0,65.8,30.11,NW,315,0.0,0.0,81,0.00,,,0.00,pywws,2013-08-22 11:32:00,
2013-08-22 07:37:00,72.5,66.3,30.11,SW,225,0.0,1.6,81,0.00,,,0.00,pywws,2013-08-22 11:37:00,
2013-08-22 07:42:00,72.9,66.7,30.11,West,270,0.7,1.6,81,0.00,,,0.00,pywws,2013-08-22 11:42:00,
2013-08-22 07:47:00,73.4,67.2,30.11,SW,225,1.6,2.2,81,0.00,,,0.00,pywws,2013-08-22 11:47:00,
2013-08-22 07:52:00,73.9,67.7,30.11,South,180,2.2,3.8,81,0.00,,,0.00,pywws,2013-08-22 11:52:00,
2013-08-22 07:57:00,74.7,68.1,30.11,SE,135,0.0,1.6,80,0.00,,,0.00,pywws,2013-08-22 11:57:00,
2013-08-22 08:02:00,75.4,68.4,30.11,SW,225,1.6,2.2,79,0.00,,,0.00,pywws,2013-08-22 12:02:00,
2013-08-22 08:07:00,76.1,69.1,30.11,East,90,0.7,2.2,79,0.00,,,0.00,pywws,2013-08-22 12:07:00,
2013-08-22 08:12:00,76.5,69.4,30.11,North,0,3.1,5.4,79,0.00,,,0.00,pywws,2013-08-22 12:12:00,
2013-08-22 08:17:00,77.0,69.6,30.10,WSW,248,1.6,4.5,78,0.00,,,0.00,pywws,2013-08-22 12:17:00,
2013-08-22 08:28:00,77.2,69.4,30.11,SE,135,0.0,0.7,77,0.00,,,0.00,pywws,2013-08-22 12:28:00,
2013-08-22 08:33:00,77.2,69.4,30.11,West,270,2.2,4.5,77,0.00,,,0.00,pywws,2013-08-22 12:33:00,
2013-08-22 08:39:00,77.0,69.2,30.11,West,270,0.7,1.6,77,0.00,,,0.00,pywws,2013-08-22 12:39:00,
2013-08-22 08:45:00,76.6,69.3,30.11,West,270,1.6,3.8,78,0.00,,,0.00,pywws,2013-08-22 12:45:00,
2013-08-22 08:50:00,76.6,69.6,30.11,SW,225,1.6,3.8,79,0.00,,,0.00,pywws,2013-08-22 12:50:00,
2013-08-22 08:56:00,76.5,69.4,30.11,West,270,0.7,1.6,79,0.00,,,0.00,pywws,2013-08-22 12:56:00,
2013-08-22 09:01:00,76.5,69.4,30.11,SW,225,0.7,1.6,79,0.00,,,0.00,pywws,2013-08-22 13:01:00,
2013-08-22 09:07:00,76.5,69.4,30.12,SW,225,3.1,4.5,79,0.00,,,0.00,pywws,2013-08-22 13:07:00,
2013-08-22 09:13:00,76.3,69.3,30.13,NW,315,4.5,6.9,79,0.00,,,0.00,pywws,2013-08-22 13:13:00,
2013-08-22 09:18:00,75.9,68.9,30.13,SW,225,9.8,12.1,79,0.00,,,0.00,pywws,2013-08-22 13:18:00,
2013-08-22 09:24:00,75.4,68.0,30.13,NW,315,11.4,14.5,78,0.00,,,0.00,pywws,2013-08-22 13:24:00,
2013-08-22 09:29:00,74.7,67.3,30.12,SW,225,3.1,3.8,78,0.00,,,0.00,pywws,2013-08-22 13:29:00,
2013-08-22 09:35:00,73.9,66.6,30.12,East,90,0.7,2.2,78,0.00,,,0.00,pywws,2013-08-22 13:35:00,
2013-08-22 09:41:00,73.4,66.5,30.11,SE,135,3.1,6.0,79,0.00,,,0.00,pywws,2013-08-22 13:41:00,
2013-08-22 09:46:00,72.7,66.1,30.11,North,0,0.0,0.7,80,0.00,,,0.00,pywws,2013-08-22 13:46:00,
2013-08-22 09:52:00,72.1,66.0,30.12,SE,135,0.7,2.2,81,0.00,,,0.00,pywws,2013-08-22 13:52:00,
2013-08-22 09:57:00,71.8,66.0,30.11,NW,315,1.6,3.1,82,0.00,,,0.00,pywws,2013-08-22 13:57:00,
2013-08-22 10:03:00,71.4,66.0,30.11,SW,225,1.6,2.2,83,0.00,,,0.00,pywws,2013-08-22 14:03:00,
2013-08-22 10:09:00,71.2,66.1,30.11,SW,225,0.7,2.2,84,0.00,,,0.00,pywws,2013-08-22 14:09:00,
2013-08-22 10:14:00,71.1,66.3,30.11,West,270,0.7,2.2,85,0.00,,,0.00,pywws,2013-08-22 14:14:00,
2013-08-22 10:20:00,71.4,66.7,30.11,North,0,2.2,3.8,85,0.01,,,0.01,pywws,2013-08-22 14:20:00,
2013-08-22 10:25:00,71.6,66.8,30.11,NW,315,0.7,1.6,85,0.01,,,0.01,pywws,2013-08-22 14:25:00,
2013-08-22 10:31:00,72.0,67.2,30.11,SW,225,0.7,2.2,85,0.01,,,0.01,pywws,2013-08-22 14:31:00,
2013-08-22 10:37:00,72.3,67.5,30.11,WSW,248,0.7,3.1,85,0.01,,,0.01,pywws,2013-08-22 14:37:00,
2013-08-22 10:42:00,72.5,67.7,30.11,West,270,1.6,2.2,85,0.01,,,0.01,pywws,2013-08-22 14:42:00,
2013-08-22 10:48:00,72.7,67.9,30.11,NW,315,0.0,0.7,85,0.02,,,0.02,pywws,2013-08-22 14:48:00,
2013-08-22 10:53:00,72.7,67.9,30.12,West,270,1.6,2.2,85,0.02,,,0.02,pywws,2013-08-22 14:53:00,
2013-08-22 10:59:00,72.9,67.7,30.12,WNW,292,3.1,4.5,84,0.04,,,0.04,pywws,2013-08-22 14:59:00,
2013-08-22 11:05:00,72.9,67.7,30.11,West,270,2.2,3.1,84,0.04,,,0.04,pywws,2013-08-22 15:05:00,
2013-08-22 11:10:00,73.0,67.9,30.11,NW,315,3.8,6.9,84,0.04,,,0.04,pywws,2013-08-22 15:10:00,
2013-08-22 11:16:00,73.2,68.1,30.12,West,270,4.5,6.0,84,0.02,,,0.04,pywws,2013-08-22 15:16:00,
2013-08-22 11:21:00,73.0,67.9,30.12,SW,225,3.8,5.4,84,0.02,,,0.04,pywws,2013-08-22 15:21:00,
2013-08-22 11:27:00,73.0,67.9,30.12,SW,225,0.7,2.2,84,0.02,,,0.04,pywws,2013-08-22 15:27:00,
2013-08-22 11:33:00,73.2,68.1,30.12,NW,315,1.6,3.1,84,0.04,,,0.05,pywws,2013-08-22 15:33:00,
2013-08-22 11:38:00,73.4,68.6,30.11,West,270,5.4,6.9,85,0.04,,,0.05,pywws,2013-08-22 15:38:00,
2013-08-22 11:44:00,73.6,68.8,30.11,WNW,292,3.8,6.0,85,0.04,,,0.05,pywws,2013-08-22 15:44:00,
2013-08-22 11:49:00,73.8,69.0,30.11,SW,225,3.1,4.5,85,0.04,,,0.06,pywws,2013-08-22 15:49:00,
2013-08-22 11:55:00,73.4,68.3,30.10,WNW,292,0.7,1.6,84,0.04,,,0.06,pywws,2013-08-22 15:55:00,
2013-08-22 12:01:00,73.0,67.6,30.10,NW,315,2.2,3.8,83,0.04,,,0.07,pywws,2013-08-22 16:01:00,
2013-08-22 12:06:00,72.9,67.4,30.11,North,0,1.6,2.2,83,0.04,,,0.07,pywws,2013-08-22 16:06:00,
2013-08-22 12:12:00,72.5,67.0,30.11,North,0,1.6,3.1,83,0.04,,,0.07,pywws,2013-08-22 16:12:00,
2013-08-22 12:17:00,72.3,66.9,30.10,NW,315,0.0,0.7,83,0.04,,,0.07,pywws,2013-08-22 16:17:00,
2013-08-22 12:23:00,72.1,66.7,30.10,SW,225,1.6,3.1,83,0.04,,,0.07,pywws,2013-08-22 16:23:00,
2013-08-22 12:29:00,72.0,66.9,30.10,West,270,1.6,3.1,84,0.05,,,0.08,pywws,2013-08-22 16:29:00,
2013-08-22 12:34:00,71.8,66.7,30.10,SW,225,0.0,0.7,84,0.05,,,0.09,pywws,2013-08-22 16:34:00,
2013-08-22 12:40:00,71.8,66.7,30.10,SW,225,0.0,0.0,84,0.06,,,0.11,pywws,2013-08-22 16:40:00,
2013-08-22 12:45:00,71.6,66.8,30.09,SE,135,0.0,0.0,85,0.06,,,0.11,pywws,2013-08-22 16:45:00,
2013-08-22 12:51:00,71.6,67.2,30.09,East,90,0.7,1.6,86,0.06,,,0.12,pywws,2013-08-22 16:51:00,
2013-08-22 12:57:00,71.8,67.4,30.09,SE,135,0.0,0.7,86,0.06,,,0.12,pywws,2013-08-22 16:57:00,
2013-08-22 13:02:00,71.8,67.7,30.08,SW,225,2.2,3.1,87,0.05,,,0.12,pywws,2013-08-22 17:02:00,
2013-08-22 13:08:00,72.0,67.9,30.08,West,270,0.0,1.6,87,0.05,,,0.12,pywws,2013-08-22 17:08:00,
2013-08-22 13:13:00,72.0,68.2,30.08,South,180,0.7,0.7,88,0.05,,,0.12,pywws,2013-08-22 17:13:00,
2013-08-22 13:19:00,72.1,68.4,30.08,SW,225,0.7,1.6,88,0.05,,,0.12,pywws,2013-08-22 17:19:00,
2013-08-22 13:25:00,72.1,68.4,30.08,North,0,0.7,2.2,88,0.04,,,0.12,pywws,2013-08-22 17:25:00,
2013-08-22 13:30:00,72.1,68.4,30.08,West,270,0.0,1.6,88,0.04,,,0.13,pywws,2013-08-22 17:30:00,
2013-08-22 13:36:00,72.3,68.2,30.08,SW,225,0.7,1.6,87,0.02,,,0.13,pywws,2013-08-22 17:36:00,
2013-08-22 13:41:00,72.3,68.2,30.07,SW,225,0.7,1.6,87,0.02,,,0.13,pywws,2013-08-22 17:41:00,
2013-08-22 13:47:00,72.5,68.7,30.07,West,270,0.7,1.6,88,0.02,,,0.13,pywws,2013-08-22 17:47:00,
2013-08-22 13:53:00,72.5,68.7,30.07,North,0,1.6,2.2,88,0.01,,,0.13,pywws,2013-08-22 17:53:00,
2013-08-22 13:58:00,72.5,68.7,30.07,West,270,1.6,2.2,88,0.01,,,0.13,pywws,2013-08-22 17:58:00,
2013-08-22 14:04:00,72.5,68.4,30.06,West,270,1.6,2.2,87,0.01,,,0.13,pywws,2013-08-22 18:04:00,
2013-08-22 14:09:00,72.5,68.4,30.06,NW,315,2.2,3.8,87,0.01,,,0.13,pywws,2013-08-22 18:09:00,
2013-08-22 14:15:00,72.5,68.4,30.06,West,270,2.2,3.1,87,0.01,,,0.13,pywws,2013-08-22 18:15:00,
2013-08-22 14:21:00,72.7,68.6,30.06,West,270,0.7,1.6,87,0.01,,,0.13,pywws,2013-08-22 18:21:00,
2013-08-22 14:26:00,72.5,68.1,30.06,SW,225,0.7,2.2,86,0.01,,,0.13,pywws,2013-08-22 18:26:00,
2013-08-22 14:32:00,72.7,68.2,30.05,SW,225,0.0,1.6,86,0.00,,,0.13,pywws,2013-08-22 18:32:00,
2013-08-22 14:37:00,72.7,68.2,30.05,SW,225,0.7,1.6,86,0.00,,,0.13,pywws,2013-08-22 18:37:00,
2013-08-22 14:43:00,72.9,68.8,30.04,South,180,0.0,0.7,87,0.00,,,0.13,pywws,2013-08-22 18:43:00,
2013-08-22 14:49:00,72.9,68.8,30.04,SE,135,0.0,0.0,87,0.00,,,0.13,pywws,2013-08-22 18:49:00,
2013-08-22 14:54:00,72.9,68.8,30.04,SW,225,1.6,3.8,87,0.00,,,0.13,pywws,2013-08-22 18:54:00,
2013-08-22 15:00:00,72.9,68.8,30.03,SE,135,0.0,0.7,87,0.00,,,0.13,pywws,2013-08-22 19:00:00,
2013-08-22 15:05:00,72.7,68.6,30.03,SW,225,0.7,2.2,87,0.01,,,0.14,pywws,2013-08-22 19:05:00,
2013-08-22 15:11:00,72.7,68.6,30.03,SW,225,0.7,2.2,87,0.01,,,0.14,pywws,2013-08-22 19:11:00,
2013-08-22 15:17:00,72.5,68.4,30.02,West,270,2.2,4.5,87,0.01,,,0.14,pywws,2013-08-22 19:17:00,
2013-08-22 15:22:00,72.3,68.2,30.02,SE,135,0.7,1.6,87,0.01,,,0.14,pywws,2013-08-22 19:22:00,
2013-08-22 15:28:00,72.3,68.2,30.02,North,0,1.6,3.8,87,0.01,,,0.14,pywws,2013-08-22 19:28:00,
2013-08-22 15:33:00,72.1,68.0,30.03,West,270,1.6,3.1,87,0.01,,,0.14,pywws,2013-08-22 19:33:00,
2013-08-22 15:39:00,72.3,68.2,30.02,South,180,1.6,3.1,87,0.01,,,0.14,pywws,2013-08-22 19:39:00,
2013-08-22 15:45:00,72.3,68.2,30.02,SW,225,2.2,3.8,87,0.01,,,0.14,pywws,2013-08-22 19:45:00,
2013-08-22 15:50:00,72.3,68.2,30.02,SW,225,1.6,2.2,87,0.01,,,0.14,pywws,2013-08-22 19:50:00,
2013-08-22 15:56:00,72.5,68.4,30.02,West,270,0.7,2.2,87,0.01,,,0.14,pywws,2013-08-22 19:56:00,
2013-08-22 16:01:00,72.7,68.6,30.02,West,270,2.2,3.8,87,0.01,,,0.14,pywws,2013-08-22 20:01:00,
2013-08-22 16:07:00,72.9,68.8,30.02,SW,225,1.6,3.1,87,0.00,,,0.14,pywws,2013-08-22 20:07:00,
2013-08-22 16:13:00,73.0,68.9,30.01,SW,225,2.2,3.8,87,0.00,,,0.14,pywws,2013-08-22 20:13:00,
2013-08-22 16:18:00,73.4,69.6,30.01,SE,135,0.0,0.0,88,0.00,,,0.14,pywws,2013-08-22 20:18:00,
2013-08-22 16:24:00,73.8,70.0,30.01,ESE,112,0.0,0.7,88,0.00,,,0.14,pywws,2013-08-22 20:24:00,
2013-08-22 16:29:00,74.1,70.0,30.00,West,270,0.7,1.6,87,0.00,,,0.14,pywws,2013-08-22 20:29:00,
2013-08-22 16:35:00,74.3,70.2,30.00,East,90,0.7,1.6,87,0.00,,,0.14,pywws,2013-08-22 20:35:00,
2013-08-22 16:41:00,74.7,70.5,30.00,West,270,1.6,3.1,87,0.00,,,0.14,pywws,2013-08-22 20:41:00,
2013-08-22 16:46:00,75.0,70.5,30.01,SW,225,0.7,2.2,86,0.00,,,0.14,pywws,2013-08-22 20:46:00,
2013-08-22 16:52:00,75.2,70.0,30.00,SW,225,1.6,3.1,84,0.00,,,0.14,pywws,2013-08-22 20:52:00,
2013-08-22 16:57:00,75.4,70.2,30.00,East,90,0.7,1.6,84,0.00,,,0.14,pywws,2013-08-22 20:57:00,
2013-08-22 17:03:00,75.6,70.4,29.99,NW,315,0.7,1.6,84,0.00,,,0.14,pywws,2013-08-22 21:03:00,
2013-08-22 17:09:00,75.7,70.5,30.00,West,270,0.7,2.2,84,0.00,,,0.14,pywws,2013-08-22 21:09:00,
2013-08-22 17:14:00,75.9,70.7,30.00,SW,225,2.2,4.5,84,0.00,,,0.14,pywws,2013-08-22 21:14:00,
2013-08-22 17:20:00,75.9,70.0,29.99,SW,225,1.6,2.2,82,0.00,,,0.14,pywws,2013-08-22 21:20:00,
2013-08-22 17:25:00,76.1,70.2,29.99,South,180,2.2,3.8,82,0.00,,,0.14,pywws,2013-08-22 21:25:00,
2013-08-22 17:31:00,76.3,70.4,29.99,NW,315,0.7,1.6,82,0.00,,,0.14,pywws,2013-08-22 21:31:00,
2013-08-22 17:37:00,76.1,70.2,29.98,SE,135,3.1,5.4,82,0.00,,,0.14,pywws,2013-08-22 21:37:00,
2013-08-22 17:43:00,75.9,69.7,29.99,SE,135,1.6,3.1,81,0.00,,,0.14,pywws,2013-08-22 21:43:00,
2013-08-22 18:01:00,75.6,70.0,29.98,South,180,0.0,0.7,83,0.00,,,0.14,pywws,2013-08-22 22:01:00,
2013-08-22 18:06:00,75.7,70.2,29.97,SW,225,0.0,0.7,83,0.00,,,0.14,pywws,2013-08-22 22:06:00,
2013-08-22 18:12:00,76.1,70.2,29.97,SSW,202,3.1,3.8,82,0.00,,,0.14,pywws,2013-08-22 22:12:00,
2013-08-22 18:17:00,76.3,70.0,29.97,SE,135,2.2,3.8,81,0.00,,,0.14,pywws,2013-08-22 22:17:00,
2013-08-22 18:23:00,76.5,69.8,29.97,SSW,202,1.6,3.1,80,0.00,,,0.14,pywws,2013-08-22 22:23:00,
2013-08-22 18:29:00,76.5,69.8,29.98,South,180,2.2,4.5,80,0.00,,,0.14,pywws,2013-08-22 22:29:00,
2013-08-22 18:34:00,76.5,69.8,29.98,SW,225,3.8,5.4,80,0.00,,,0.14,pywws,2013-08-22 22:34:00,
2013-08-22 18:40:00,76.5,69.4,29.98,NE,45,1.6,3.1,79,0.00,,,0.14,pywws,2013-08-22 22:40:00,
2013-08-22 18:45:00,76.5,69.8,29.98,NW,315,1.6,3.1,80,0.00,,,0.14,pywws,2013-08-22 22:45:00,
2013-08-22 18:51:00,76.3,69.6,29.98,West,270,2.2,3.8,80,0.00,,,0.14,pywws,2013-08-22 22:51:00,
2013-08-22 18:57:00,76.1,69.5,29.98,WSW,248,4.5,5.4,80,0.00,,,0.14,pywws,2013-08-22 22:57:00,
2013-08-22 19:02:00,76.1,69.5,29.98,East,90,0.7,2.2,80,0.00,,,0.14,pywws,2013-08-22 23:02:00,
2013-08-22 19:08:00,75.7,69.1,29.98,SW,225,0.7,2.2,80,0.00,,,0.14,pywws,2013-08-22 23:08:00,
2013-08-22 19:13:00,75.6,69.3,29.98,SE,135,0.7,2.2,81,0.00,,,0.14,pywws,2013-08-22 23:13:00,
2013-08-22 19:19:00,75.4,69.1,29.98,SW,225,0.0,0.0,81,0.00,,,0.14,pywws,2013-08-22 23:19:00,
2013-08-22 19:25:00,75.2,69.3,29.97,East,90,0.0,0.0,82,0.00,,,0.14,pywws,2013-08-22 23:25:00,
2013-08-22 19:30:00,74.8,69.3,29.98,East,90,0.0,0.0,83,0.00,,,0.14,pywws,2013-08-22 23:30:00,
2013-08-22 19:36:00,74.7,69.5,29.97,SE,135,0.0,0.0,84,0.00,,,0.14,pywws,2013-08-22 23:36:00,
2013-08-22 19:41:00,74.3,69.5,29.97,SE,135,0.0,0.0,85,0.00,,,0.14,pywws,2013-08-22 23:41:00,
2013-08-22 19:48:00,74.1,69.3,29.97,South,180,0.7,1.6,85,0.00,,,0.14,pywws,2013-08-22 23:48:00,
2013-08-22 19:53:00,73.8,69.0,29.97,SE,135,0.0,0.7,85,0.00,,,0.14,pywws,2013-08-22 23:53:00,
2013-08-22 19:59:00,73.6,69.1,29.98,SW,225,0.0,0.7,86,0.00,,,0.14,pywws,2013-08-22 23:59:00,
2013-08-22 20:05:00,73.4,68.9,29.97,East,90,0.0,0.7,86,0.00,,,0.14,pywws,2013-08-23 00:05:00,
2013-08-22 20:10:00,73.2,68.4,29.97,East,90,0.0,0.7,85,0.00,,,0.14,pywws,2013-08-23 00:10:00,
2013-08-22 20:16:00,73.0,68.6,29.98,East,90,0.0,0.0,86,0.00,,,0.14,pywws,2013-08-23 00:16:00,
2013-08-22 20:21:00,72.9,68.4,29.98,South,180,0.7,1.6,86,0.00,,,0.14,pywws,2013-08-23 00:21:00,
2013-08-22 20:27:00,72.9,68.4,29.97,SE,135,0.0,0.0,86,0.00,,,0.14,pywws,2013-08-23 00:27:00,
2013-08-22 20:33:00,72.7,68.6,29.98,SE,135,0.0,0.7,87,0.00,,,0.14,pywws,2013-08-23 00:33:00,
2013-08-22 20:38:00,72.5,68.4,29.98,East,90,0.0,0.0,87,0.00,,,0.14,pywws,2013-08-23 00:38:00,
2013-08-22 20:44:00,72.5,68.4,29.98,SW,225,1.6,2.2,87,0.00,,,0.14,pywws,2013-08-23 00:44:00,
2013-08-22 20:49:00,72.5,68.4,29.98,SSW,202,0.7,2.2,87,0.00,,,0.14,pywws,2013-08-23 00:49:00,
2013-08-22 20:55:00,72.3,68.6,29.98,SW,225,0.7,1.6,88,0.00,,,0.14,pywws,2013-08-23 00:55:00,
2013-08-22 21:01:00,72.3,68.6,29.98,South,180,0.0,0.7,88,0.00,,,0.14,pywws,2013-08-23 01:01:00,
2013-08-22 21:06:00,72.3,68.6,29.98,SW,225,0.7,1.6,88,0.00,,,0.14,pywws,2013-08-23 01:06:00,
2013-08-22 21:12:00,72.3,68.6,29.99,South,180,2.2,3.8,88,0.00,,,0.14,pywws,2013-08-23 01:12:00,
2013-08-22 21:17:00,72.3,68.9,29.99,SE,135,2.2,4.5,89,0.00,,,0.14,pywws,2013-08-23 01:17:00,
2013-08-22 21:23:00,72.5,69.1,29.98,South,180,1.6,3.1,89,0.00,,,0.14,pywws,2013-08-23 01:23:00,
2013-08-22 21:29:00,72.5,69.1,29.99,SE,135,0.7,2.2,89,0.00,,,0.14,pywws,2013-08-23 01:29:00,
2013-08-22 21:34:00,72.5,69.1,29.99,East,90,1.6,3.1,89,0.00,,,0.14,pywws,2013-08-23 01:34:00,
2013-08-22 21:40:00,72.7,69.2,29.99,South,180,1.6,3.1,89,0.00,,,0.14,pywws,2013-08-23 01:40:00,
2013-08-22 21:45:00,72.7,69.2,29.99,West,270,0.0,0.7,89,0.00,,,0.14,pywws,2013-08-23 01:45:00,
2013-08-22 21:51:00,72.7,69.2,29.98,SE,135,0.0,0.7,89,0.00,,,0.14,pywws,2013-08-23 01:51:00,
2013-08-22 21:57:00,72.5,69.1,29.98,ESE,112,0.0,1.6,89,0.00,,,0.14,pywws,2013-08-23 01:57:00,
2013-08-22 22:02:00,72.5,69.1,29.98,South,180,0.0,1.6,89,0.00,,,0.14,pywws,2013-08-23 02:02:00,
2013-08-22 22:08:00,72.3,68.9,29.98,SE,135,0.0,0.7,89,0.00,,,0.14,pywws,2013-08-23 02:08:00,
2013-08-22 22:13:00,72.3,68.9,29.97,SE,135,0.7,1.6,89,0.00,,,0.14,pywws,2013-08-23 02:13:00,
2013-08-22 22:19:00,72.1,68.7,29.98,SW,225,1.6,2.2,89,0.00,,,0.14,pywws,2013-08-23 02:19:00,
2013-08-22 22:25:00,72.0,68.5,29.97,South,180,0.7,2.2,89,0.00,,,0.14,pywws,2013-08-23 02:25:00,
2013-08-22 22:31:00,72.0,68.5,29.98,SW,225,1.6,2.2,89,0.00,,,0.14,pywws,2013-08-23 02:31:00,
2013-08-22 22:37:00,71.8,68.4,29.97,SW,225,0.0,0.7,89,0.00,,,0.14,pywws,2013-08-23 02:37:00,
2013-08-22 22:42:00,71.8,68.4,29.97,South,180,0.0,0.7,89,0.00,,,0.14,pywws,2013-08-23 02:42:00,
2013-08-22 22:48:00,71.8,68.4,29.98,SW,225,0.0,1.6,89,0.00,,,0.14,pywws,2013-08-23 02:48:00,
2013-08-22 22:53:00,71.8,68.7,29.98,SW,225,0.7,1.6,90,0.00,,,0.14,pywws,2013-08-23 02:53:00,
2013-08-22 22:59:00,71.8,68.7,29.98,SW,225,2.2,3.1,90,0.00,,,0.14,pywws,2013-08-23 02:59:00,
2013-08-22 23:05:00,71.8,68.7,29.98,West,270,0.7,1.6,90,0.00,,,0.14,pywws,2013-08-23 03:05:00,
2013-08-22 23:10:00,71.8,68.7,29.98,West,270,1.6,2.2,90,0.00,,,0.14,pywws,2013-08-23 03:10:00,
2013-08-22 23:16:00,71.6,68.5,29.98,SW,225,0.7,2.2,90,0.00,,,0.14,pywws,2013-08-23 03:16:00,
2013-08-22 23:21:00,71.6,68.5,29.97,SW,225,0.7,1.6,90,0.00,,,0.14,pywws,2013-08-23 03:21:00,
2013-08-22 23:27:00,71.4,68.6,29.97,West,270,0.7,1.6,91,0.00,,,0.14,pywws,2013-08-23 03:27:00,
2013-08-22 23:33:00,71.4,68.6,29.97,WSW,248,0.7,2.2,91,0.00,,,0.14,pywws,2013-08-23 03:33:00,
2013-08-22 23:38:00,71.4,68.6,29.97,SSW,202,1.6,3.8,91,0.00,,,0.14,pywws,2013-08-23 03:38:00,
2013-08-22 23:44:00,71.4,68.6,29.98,SW,225,3.1,5.4,91,0.00,,,0.14,pywws,2013-08-23 03:44:00,
2013-08-22 23:49:00,71.4,68.3,29.97,West,270,2.2,3.8,90,0.00,,,0.14,pywws,2013-08-23 03:49:00,
2013-08-22 23:55:00,71.4,68.3,29.97,SW,225,0.7,3.1,90,0.00,,,0.14,pywws,2013-08-23 03:55:00,